DW2616 Weather Reports


Display with metric or nautical units.
time (UTC)temp
F
wind
direction
speed
MPH
gust
MPH
rain 1hr
in
rain 24hr
in
rain mn
in
humidity
%
barometer
mb
20180921063007 79 208 1.0 4.0 0.00 0.00 0.00 61 1013.6
20180921062506 79 206 1.0 4.0 0.00 0.00 0.00 60 1013.7
20180921062008 80 196 1.0 3.0 0.00 0.00 0.00 59 1013.7
20180921061507 80 197 1.0 5.0 0.00 0.00 0.00 59 1013.6
20180921061007 80 196 1.0 5.0 0.00 0.00 0.00 59 1013.7
20180921060507 81 208 2.0 5.0 0.00 0.00 0.00 57 1013.7
20180921060007 81 209 2.0 7.0 0.00 0.00 0.00 57 1013.8
20180921055506 81 204 3.0 7.0 0.00 0.00 0.00 57 1013.7
20180921055007 81 205 3.0 6.0 0.00 0.00 0.00 57 1013.8
20180921054507 81 210 3.0 7.0 0.00 0.00 0.00 57 1013.9
20180921054007 81 212 4.0 7.0 0.00 0.00 0.00 56 1013.9
20180921053507 81 208 3.0 6.0 0.00 0.00 0.00 56 1014.0
20180921053007 82 204 2.0 5.0 0.00 0.00 0.00 56 1014.0
20180921052507 82 208 2.0 5.0 0.00 0.00 0.00 56 1014.1
20180921052007 82 211 2.0 4.0 0.00 0.00 0.00 56 1014.1
20180921051506 82 215 3.0 9.0 0.00 0.00 0.00 55 1014.0
20180921051007 82 212 3.0 9.0 0.00 0.00 0.00 55 1014.0
20180921050506 82 210 3.0 7.0 0.00 0.00 0.00 55 1013.9
20180921050014 83 216 3.0 7.0 0.00 0.00 0.00 54 1013.9
20180921045507 83 214 3.0 7.0 0.00 0.00 0.00 54 1013.8
20180921045007 83 206 3.0 5.0 0.00 0.00 0.00 54 1013.7
20180921044507 83 213 3.0 11.0 0.00 0.00 0.00 53 1013.7
20180921044007 83 213 3.0 11.0 0.00 0.00 0.00 53 1013.7
20180921043507 83 217 4.0 11.0 0.00 0.00 0.00 53 1013.7
20180921043007 83 217 3.0 8.0 0.00 0.00 0.00 53 1013.6
20180921042507 83 213 3.0 8.0 0.00 0.00 0.00 53 1013.6
20180921042008 83 212 3.0 8.0 0.00 0.00 0.00 53 1013.6
20180921041508 83 216 3.0 8.0 0.00 0.00 0.00 53 1013.5
20180921041008 83 217 4.0 8.0 0.00 0.00 0.00 53 1013.5
20180921040506 83 209 3.0 8.0 0.00 0.00 0.00 53 1013.3
20180921040007 83 207 3.0 7.0 0.00 0.00 0.00 54 1013.4
20180921035506 83 213 3.0 7.0 0.00 0.00 0.00 54 1013.3
20180921035006 83 215 3.0 8.0 0.00 0.00 0.00 54 1013.2
20180921034506 83 209 3.0 8.0 0.00 0.00 0.00 55 1013.2
20180921034006 83 198 3.0 7.0 0.00 0.00 0.00 55 1013.1
20180921033507 83 202 3.0 7.0 0.00 0.00 0.00 55 1013.1
20180921033009 83 207 2.0 5.0 0.00 0.00 0.00 55 1013.0
20180921032508 83 209 2.0 7.0 0.00 0.00 0.00 56 1013.1
20180921032007 83 207 3.0 9.0 0.00 0.00 0.00 56 1013.1
20180921031506 83 212 3.0 9.0 0.00 0.00 0.00 57 1013.1
20180921031006 83 215 3.0 7.0 0.00 0.00 0.00 57 1013.1
20180921030506 83 208 2.0 5.0 0.00 0.00 0.00 57 1013.1
20180921030007 83 206 2.0 5.0 0.00 0.00 0.00 57 1012.9
20180921025506 83 212 2.0 9.0 0.00 0.00 0.00 58 1013.1
20180921025006 83 208 2.0 9.0 0.00 0.00 0.00 58 1013.0
20180921024506 83 197 2.0 6.0 0.00 0.00 0.00 58 1013.0
20180921024007 83 198 1.0 4.0 0.00 0.00 0.00 58 1012.9
20180921023507 83 200 2.0 4.0 0.00 0.00 0.00 57 1012.8
20180921023007 83 203 2.0 6.0 0.00 0.00 0.00 57 1012.7
20180921022507 84 205 1.0 6.0 0.00 0.00 0.00 57 1012.7
20180921022007 84 194 2.0 4.0 0.00 0.00 0.00 57 1012.7
20180921021507 84 198 2.0 4.0 0.00 0.00 0.00 57 1012.7
20180921021007 84 207 2.0 4.0 0.00 0.00 0.00 57 1012.7
20180921020507 84 208 2.0 4.0 0.00 0.00 0.00 56 1012.6
20180921020007 84 205 2.0 7.0 0.00 0.00 0.00 56 1012.5
20180921015508 84 199 2.0 7.0 0.00 0.00 0.00 56 1012.5
20180921015007 84 212 3.0 8.0 0.00 0.00 0.00 56 1012.4
20180921014506 85 212 3.0 8.0 0.00 0.00 0.00 56 1012.4
20180921014007 84 195 2.0 5.0 0.00 0.00 0.00 56 1012.3
20180921013506 85 209 2.0 6.0 0.00 0.00 0.00 56 1012.2
20180921013007 85 213 2.0 6.0 0.00 0.00 0.00 56 1012.2
20180921012507 84 214 1.0 5.0 0.00 0.00 0.00 56 1012.1
20180921012007 84 222 1.0 5.0 0.00 0.00 0.00 56 1012.0
20180921011506 85 218 1.0 4.0 0.00 0.00 0.00 56 1012.1
20180921011007 85 208 1.0 3.0 0.00 0.00 0.00 56 1012.0
20180921010507 85 198 1.0 3.0 0.00 0.00 0.00 56 1012.0
20180921010007 85 199 1.0 3.0 0.00 0.00 0.00 55 1012.0
20180921005506 85 196 1.0 3.0 0.00 0.00 0.00 55 1012.0
20180921005006 85 205 1.0 5.0 0.00 0.00 0.00 55 1012.0
20180921004507 86 203 1.0 5.0 0.00 0.00 0.00 55 1012.0
20180921004007 86 204 1.0 4.0 0.00 0.00 0.00 54 1012.1
20180921003507 86 211 1.0 4.0 0.00 0.00 0.00 54 1012.0
20180921003008 86 211 1.0 3.0 0.00 0.00 0.00 53 1012.0
20180921002507 86 213 1.0 2.0 0.00 0.00 0.00 53 1012.0
20180921002006 87 103 0.0 1.0 0.00 0.00 0.00 59 1012.1
20180921001507 86 103 0.0 1.0 0.00 0.00 0.00 59 1012.1
20180921001007 86 102 0.0 2.0 0.00 0.00 0.00 59 1012.2
20180921000512 87 103 0.0 2.0 0.00 0.00 0.00 59 1012.3
20180921000007 87 106 0.0 2.0 0.00 0.00 0.00 58 1012.3
20180920235507 87 108 0.0 4.0 0.00 0.00 0.00 58 1012.3
20180920235007 87 105 0.0 4.0 0.00 0.00 0.00 58 1012.3
20180920234507 88 92 1.0 3.0 0.00 0.00 0.00 57 1012.4
20180920234008 88 74 0.0 3.0 0.00 0.00 0.00 57 1012.4
20180920233507 88 56 0.0 3.0 0.00 0.00 0.00 56 1012.4
20180920233007 88 52 0.0 6.0 0.00 0.00 0.00 56 1012.5
20180920232506 88 66 1.0 6.0 0.00 0.00 0.00 55 1012.5
20180920232007 89 69 1.0 7.0 0.00 0.00 0.00 55 1012.6
20180920231506 89 53 1.0 7.0 0.00 0.00 0.00 54 1012.5
20180920231006 89 33 1.0 7.0 0.00 0.00 0.00 55 1012.6
20180920230507 89 81 1.0 7.0 0.00 0.00 0.00 55 1012.6
20180920230007 89 95 1.0 7.0 0.00 0.00 0.00 55 1012.5
20180920225507 90 86 1.0 7.0 0.00 0.00 0.00 55 1012.7
20180920225007 90 87 0.0 3.0 0.00 0.00 0.00 54 1012.6
20180920224506 90 113 1.0 5.0 0.00 0.00 0.00 54 1012.6
20180920224006 90 93 1.0 5.0 0.00 0.00 0.00 53 1012.6
20180920223507 90 49 1.0 7.0 0.00 0.00 0.00 53 1012.6
20180920223008 90 72 2.0 7.0 0.00 0.00 0.00 53 1012.7
20180920222506 90 37 1.0 7.0 0.00 0.00 0.00 53 1012.8
20180920222006 91 15 1.0 5.0 0.00 0.00 0.00 54 1012.8
20180920221507 91 16 1.0 5.0 0.00 0.00 0.00 53 1012.8
20180920221007 91 64 1.0 7.0 0.00 0.00 0.00 53 1012.8
20180920220507 91 71 1.0 7.0 0.00 0.00 0.00 53 1012.8
20180920220007 91 54 1.0 5.0 0.00 0.00 0.00 53 1012.8
20180920215507 91 59 1.0 5.0 0.00 0.00 0.00 53 1012.9
20180920215007 91 59 1.0 7.0 0.00 0.00 0.00 52 1012.8
20180920214507 91 90 2.0 7.0 0.00 0.00 0.00 52 1012.9
20180920214006 91 51 2.0 8.0 0.00 0.00 0.00 53 1012.9
20180920213506 91 47 1.0 8.0 0.00 0.00 0.00 53 1013.0
20180920213006 91 84 1.0 8.0 0.00 0.00 0.00 54 1012.9
20180920212508 91 90 1.0 8.0 0.00 0.00 0.00 53 1013.1
20180920212007 91 77 1.0 7.0 0.00 0.00 0.00 54 1013.1
20180920211508 91 314 1.0 7.0 0.00 0.00 0.00 53 1013.1
20180920211006 92 67 1.0 5.0 0.00 0.00 0.00 53 1013.2
20180920210507 92 78 1.0 6.0 0.00 0.00 0.00 54 1013.1
20180920210007 92 65 1.0 6.0 0.00 0.00 0.00 53 1013.2
20180920205507 92 107 1.0 4.0 0.00 0.00 0.00 54 1013.2
20180920205008 92 167 1.0 5.0 0.00 0.00 0.00 53 1013.2
20180920204507 92 120 1.0 5.0 0.00 0.00 0.00 53 1013.2
20180920204007 92 124 2.0 6.0 0.00 0.00 0.00 53 1013.3
20180920203508 92 258 2.0 6.0 0.00 0.00 0.00 53 1013.4
20180920203008 92 84 1.0 5.0 0.00 0.00 0.00 53 1013.5
20180920202506 92 54 1.0 5.0 0.00 0.00 0.00 53 1013.5
20180920202007 92 77 1.0 5.0 0.00 0.00 0.00 54 1013.6
20180920201507 92 79 1.0 5.0 0.00 0.00 0.00 54 1013.5
20180920201014 92 208 1.0 5.0 0.00 0.00 0.00 54 1013.6
20180920200507 92 247 2.0 5.0 0.00 0.00 0.00 54 1013.6
20180920200007 92 231 2.0 5.0 0.00 0.00 0.00 55 1013.5
20180920195507 92 129 1.0 6.0 0.00 0.00 0.00 54 1013.6
20180920195007 92 94 1.0 6.0 0.00 0.00 0.00 54 1013.6
20180920194507 92 232 1.0 4.0 0.00 0.00 0.00 54 1013.6
20180920194006 92 106 1.0 7.0 0.00 0.00 0.00 54 1013.7
20180920193508 92 88 1.0 7.0 0.00 0.00 0.00 55 1013.8
20180920193008 92 93 2.0 7.0 0.00 0.00 0.00 55 1013.9
20180920192507 92 75 1.0 7.0 0.00 0.00 0.00 56 1014.0
20180920192007 91 42 1.0 7.0 0.00 0.00 0.00 55 1014.0
20180920191506 91 58 1.0 4.0 0.00 0.00 0.00 56 1014.0
20180920191007 92 74 1.0 4.0 0.00 0.00 0.00 56 1014.1
20180920190507 92 131 1.0 3.0 0.00 0.00 0.00 55 1014.2
20180920190007 92 126 1.0 3.0 0.00 0.00 0.00 55 1014.2
20180920185507 92 84 1.0 5.0 0.00 0.00 0.00 55 1014.3
20180920185007 92 70 1.0 5.0 0.00 0.00 0.00 56 1014.3
20180920184507 92 85 1.0 5.0 0.00 0.00 0.00 57 1014.4
20180920184007 91 188 2.0 5.0 0.00 0.00 0.00 57 1014.4
20180920183507 91 219 3.0 6.0 0.00 0.00 0.00 56 1014.4
20180920183009 93 223 3.0 8.0 0.00 0.00 0.00 46 1014.5
20180920182507 93 218 3.0 8.0 0.00 0.00 0.00 46 1014.6
20180920182007 93 220 3.0 9.0 0.00 0.00 0.00 47 1014.7
20180920181506 93 218 4.0 9.0 0.00 0.00 0.00 48 1014.7
20180920181007 92 215 5.0 13.0 0.00 0.00 0.00 48 1014.7
20180920180507 93 216 4.0 13.0 0.00 0.00 0.00 48 1014.8
20180920180006 93 199 3.0 7.0 0.00 0.00 0.00 48 1014.8
20180920175507 92 215 4.0 10.0 0.00 0.00 0.00 49 1014.9
20180920175007 92 220 3.0 10.0 0.00 0.00 0.00 48 1015.0
20180920174506 92 222 3.0 14.0 0.00 0.00 0.00 49 1015.1
20180920174007 92 223 4.0 14.0 0.00 0.00 0.00 49 1015.1
20180920173507 92 216 4.0 12.0 0.00 0.00 0.00 50 1015.2
20180920173007 92 223 4.0 12.0 0.00 0.00 0.00 49 1015.4
20180920172507 91 237 3.0 9.0 0.00 0.00 0.00 50 1015.4
20180920172007 91 234 4.0 9.0 0.00 0.00 0.00 50 1015.4
20180920171507 91 233 4.0 8.0 0.00 0.00 0.00 50 1015.4
20180920171007 91 229 4.0 8.0 0.00 0.00 0.00 50 1015.5
20180920170507 91 212 4.0 8.0 0.00 0.00 0.00 52 1015.5
20180920170007 90 210 5.0 12.0 0.00 0.00 0.00 52 1015.6
20180920165507 90 210 4.0 12.0 0.00 0.00 0.00 52 1015.7
20180920165006 90 201 4.0 10.0 0.00 0.00 0.00 52 1015.8
20180920164506 90 200 4.0 10.0 0.00 0.00 0.00 52 1015.7
20180920164007 90 212 4.0 7.0 0.00 0.00 0.00 52 1015.7
20180920163507 90 219 5.0 11.0 0.00 0.00 0.00 52 1015.8
20180920163007 90 215 4.0 11.0 0.00 0.00 0.00 52 1015.9
20180920162507 90 217 3.0 10.0 0.00 0.00 0.00 54 1015.9
20180920162007 89 217 4.0 10.0 0.00 0.00 0.00 53 1015.9
20180920161506 89 212 3.0 6.0 0.00 0.00 0.00 54 1016.0
20180920161007 88 226 3.0 7.0 0.00 0.00 0.00 56 1015.9
20180920160507 88 233 3.0 8.0 0.00 0.00 0.00 56 1016.0
20180920160007 88 213 3.0 8.0 0.00 0.00 0.00 56 1016.1
20180920155507 88 218 4.0 8.0 0.00 0.00 0.00 56 1016.0
20180920155007 87 222 3.0 7.0 0.00 0.00 0.00 57 1016.1
20180920154507 87 215 3.0 8.0 0.00 0.00 0.00 58 1016.2
20180920154007 86 218 3.0 8.0 0.00 0.00 0.00 58 1016.2
20180920153507 86 219 3.0 6.0 0.00 0.00 0.00 60 1016.3
20180920153007 86 215 3.0 8.0 0.00 0.00 0.00 60 1016.3
20180920152507 86 214 3.0 8.0 0.00 0.00 0.00 60 1016.3
20180920152006 85 226 3.0 7.0 0.00 0.00 0.00 60 1016.3
20180920151507 85 226 3.0 8.0 0.00 0.00 0.00 62 1016.2
20180920150507 84 219 3.0 7.0 0.00 0.00 0.00 64 1016.2
20180920150006 84 218 4.0 7.0 0.00 0.00 0.00 65 1016.2
20180920145507 84 218 4.0 7.0 0.00 0.00 0.00 65 1016.3
20180920145007 83 209 4.0 8.0 0.00 0.00 0.00 67 1016.3
20180920144507 83 209 4.0 8.0 0.00 0.00 0.00 67 1016.3
20180920144007 83 218 4.0 11.0 0.00 0.00 0.00 67 1016.3
20180920143506 82 219 3.0 11.0 0.00 0.00 0.00 68 1016.3
20180920143007 82 217 3.0 7.0 0.00 0.00 0.00 70 1016.3
20180920142507 82 208 3.0 7.0 0.00 0.00 0.00 70 1016.2
20180920142007 81 206 3.0 6.0 0.00 0.00 0.00 72 1016.3
20180920141507 81 214 3.0 6.0 0.00 0.00 0.00 72 1016.2
20180920141007 80 218 2.0 5.0 0.00 0.00 0.00 73 1016.2
20180920140507 80 215 3.0 7.0 0.00 0.00 0.00 73 1016.2
20180920140007 80 216 3.0 7.0 0.00 0.00 0.00 74 1016.2
20180920135507 80 218 2.0 7.0 0.00 0.00 0.00 75 1016.2
20180920135007 79 220 2.0 7.0 0.00 0.00 0.00 76 1016.1
20180920134509 79 221 3.0 7.0 0.00 0.00 0.00 77 1016.2
20180920134007 78 220 2.0 6.0 0.00 0.00 0.00 79 1016.1
20180920133508 78 221 1.0 4.0 0.00 0.00 0.00 79 1016.0
20180920132507 77 211 2.0 4.0 0.00 0.00 0.00 81 1016.0
20180920132006 77 215 2.0 4.0 0.00 0.00 0.00 81 1016.1
20180920131506 77 213 2.0 4.0 0.00 0.00 0.00 83 1016.1
20180920131007 76 203 1.0 4.0 0.00 0.00 0.00 83 1016.0
20180920130507 76 209 1.0 3.0 0.00 0.00 0.00 83 1016.0
20180920130007 76 208 1.0 3.0 0.00 0.00 0.00 83 1016.0
20180920125507 76 205 1.0 3.0 0.00 0.00 0.00 84 1016.0
20180920125008 76 219 1.0 3.0 0.00 0.00 0.00 84 1016.0
20180920124506 76 224 1.0 3.0 0.00 0.00 0.00 84 1016.0
20180920124007 75 222 1.0 3.0 0.00 0.00 0.00 85 1015.9
20180920123507 75 217 1.0 4.0 0.00 0.00 0.00 85 1016.0
20180920123007 75 207 1.0 4.0 0.00 0.00 0.00 85 1015.9
20180920122507 75 204 1.0 3.0 0.00 0.00 0.00 86 1015.9
20180920122008 75 202 0.0 2.0 0.00 0.00 0.00 86 1015.9
20180920121507 74 207 0.0 1.0 0.00 0.00 0.00 86 1015.8
20180920121008 74 207 0.0 1.0 0.00 0.00 0.00 86 1015.8
20180920120507 74 201 0.0 1.0 0.00 0.00 0.00 86 1015.8
20180920120008 74 213 0.0 2.0 0.00 0.00 0.00 86 1015.6
20180920115507 74 215 0.0 2.0 0.00 0.00 0.00 87 1015.6
20180920115115 74 155 0.0 1.0 0.00 0.00 0.00 87 1015.6
20180920114556 74 171 1.0 2.0 0.00 0.00 0.00 87 1015.6
20180920114007 74 192 0.0 2.0 0.00 0.00 0.00 87 1015.6
20180920113507 74 173 0.0 2.0 0.00 0.00 0.00 87 1015.6
20180920113007 74 147 0.0 1.0 0.00 0.00 0.00 87 1015.6
20180920112507 74 154 0.0 1.0 0.00 0.00 0.00 87 1015.5
20180920112007 74 197 0.0 3.0 0.00 0.00 0.00 87 1015.4
20180920111507 74 212 0.0 3.0 0.00 0.00 0.00 88 1015.4
20180920111007 74 216 0.0 1.0 0.00 0.00 0.00 88 1015.4
20180920110507 74 115 0.0 1.0 0.00 0.00 0.00 88 1015.4
20180920110007 74 115 0.0 1.0 0.00 0.00 0.00 88 1015.3
20180920105507 74 0 0.0 0.0 0.00 0.00 0.00 88 1015.3
20180920105007 74 0 0.0 0.0 0.00 0.00 0.00 88 1015.3
20180920104507 74 115 0.0 1.0 0.00 0.00 0.00 87 1015.3
20180920104006 74 115 0.0 1.0 0.00 0.00 0.00 87 1015.4
20180920103507 74 0 0.0 0.0 0.00 0.00 0.00 87 1015.4
20180920103008 74 0 0.0 0.0 0.00 0.00 0.00 87 1015.4
20180920102507 74 0 0.0 0.0 0.00 0.00 0.00 87 1015.3
20180920102007 74 0 0.0 0.0 0.00 0.00 0.00 86 1015.2
20180920101507 74 0 0.0 0.0 0.00 0.00 0.00 86 1015.2
20180920101006 74 0 0.0 0.0 0.00 0.00 0.00 86 1015.1
20180920100506 74 0 0.0 0.0 0.00 0.00 0.00 86 1015.1
20180920100008 74 0 0.0 0.0 0.00 0.00 0.00 86 1015.0
20180920095506 74 0 0.0 0.0 0.00 0.00 0.00 86 1015.0
20180920095007 74 0 0.0 0.0 0.00 0.00 0.00 86 1015.0
20180920094510 74 0 0.0 0.0 0.00 0.00 0.00 85 1015.1
20180920094008 75 0 0.0 0.0 0.00 0.00 0.00 85 1015.1
20180920093508 75 0 0.0 0.0 0.00 0.00 0.00 85 1015.1
20180920093010 75 0 0.0 0.0 0.00 0.00 0.00 85 1015.2
20180920092509 75 112 0.0 1.0 0.00 0.00 0.00 85 1015.2
20180920092012 75 112 1.0 1.0 0.00 0.00 0.00 84 1015.2
20180920091516 75 111 0.0 1.0 0.00 0.00 0.00 84 1015.0
20180920091007 75 111 0.0 1.0 0.00 0.00 0.00 84 1015.0
20180920090506 76 112 0.0 1.0 0.00 0.00 0.00 83 1015.0
20180920090010 76 111 0.0 1.0 0.00 0.00 0.00 83 1015.0
20180920085507 76 183 0.0 2.0 0.00 0.00 0.00 83 1015.0
20180920085006 76 219 0.0 2.0 0.00 0.00 0.00 83 1015.0
20180920084506 76 222 0.0 2.0 0.00 0.00 0.00 83 1015.0
20180920084007 76 216 0.0 2.0 0.00 0.00 0.00 83 1014.9
20180920083507 76 213 0.0 2.0 0.00 0.00 0.00 83 1014.9
20180920083007 76 220 1.0 3.0 0.00 0.00 0.00 83 1014.8
20180920082506 76 222 1.0 3.0 0.00 0.00 0.00 83 1014.7
20180920082006 76 217 1.0 2.0 0.00 0.00 0.00 83 1014.6
20180920081507 76 214 1.0 2.0 0.00 0.00 0.00 83 1014.6
20180920081008 76 216 0.0 2.0 0.00 0.00 0.00 83 1014.6
20180920080506 76 211 1.0 2.0 0.00 0.00 0.00 83 1014.6
20180920080007 76 212 1.0 2.0 0.00 0.00 0.00 83 1014.6
20180920075507 76 215 1.0 3.0 0.00 0.00 0.00 83 1014.6
20180920075007 76 215 1.0 3.0 0.00 0.00 0.00 83 1014.5
20180920074506 76 217 1.0 2.0 0.00 0.00 0.00 83 1014.5
20180920074007 76 213 1.0 4.0 0.00 0.00 0.00 83 1014.5
20180920073507 76 213 1.0 4.0 0.00 0.00 0.00 83 1014.6
20180920073007 76 214 1.0 2.0 0.00 0.00 0.00 83 1014.7
20180920072507 76 217 1.0 2.0 0.00 0.00 0.00 83 1014.7
20180920072007 76 216 1.0 2.0 0.00 0.00 0.00 83 1014.7
20180920071506 76 204 1.0 2.0 0.00 0.00 0.00 82 1014.7
20180920071007 77 211 1.0 2.0 0.00 0.00 0.00 82 1014.7
20180920070507 77 216 1.0 2.0 0.00 0.00 0.00 82 1014.7
20180920070007 77 207 0.0 2.0 0.00 0.00 0.00 82 1014.7
20180920065507 77 197 0.0 1.0 0.00 0.00 0.00 81 1014.6
20180920065007 77 199 0.0 1.0 0.00 0.00 0.00 81 1014.7
20180920064507 77 215 0.0 1.0 0.00 0.00 0.00 81 1014.8
20180920064007 77 222 0.0 1.0 0.00 0.00 0.00 81 1014.7
20180920063507 77 201 0.0 1.0 0.00 0.00 0.00 81 1014.8